Location: Park Creek Village Mobile Home Park
(38.2885°N, 122.4714°W)
Time: 19:08:57
(UTC+00:00)

NOSS 3-2 (C) - Pass Details

Date: 14 December 2019
Orbit: 816 x 1396 km, 63.4° (Epoch: 19 January)

Event Time Altitude Azimuth Distance (km) Brightness Sun altitude
Rises 14:20:25 0° 213° (SSW) 3,351 6.2 -11.2°
Reaches altitude 10° 14:22:45 10° 215° (SW) 2,450 5.5 -10.8°
Maximum altitude 14:28:23 83° 302° (WNW) 907 3.3 -9.7°
Drops below altitude 10° 14:34:43 10° 32° (NNE) 2,747 6.0 -8.6°
Sets 14:37:29 0° 33° (NNE) 3,787 6.7 -8.1°
